Rome Ciampino, Italy

2:25 PM CEST on June 25, 2017 (GMT +0200)
Ciampino

Weather History for LIRA - November, 2013

Change the Weather History Date:

Thursday, November 21, 2013

  Actual Average Record
Temperature  
Mean Temperature 52 °F -  
Max Temperature 57 °F 57 °F 68 °F (2016)
Min Temperature 48 °F 40 °F 33 °F (1998)
Degree Days  
Heating Degree Days 12    
Growing Degree Days 2 (Base 50)    
Moisture  
Dew Point 46 °F    
Average Humidity 82    
Maximum Humidity 100    
Minimum Humidity 62    
Precipitation  
Precipitation 0.00 in 0.15 in - ()
Sea Level Pressure  
Sea Level Pressure 29.59 in    
Wind  
Wind Speed 6 mph ()    
Max Wind Speed 17 mph    
Max Gust Speed 36 mph    
Visibility 6.1 miles    
Events Rain , Thunderstorm    
Averages and records for this station are not official NWS values.
T = Trace of Precipitation, MM = Missing Value Source: Averaged Metar Reports

Daily Weather History Graph

Daily Weather History Graph

Search for Another Location

Airport or City:

Trip Planner

Search our weather history database for the weather conditions in past years. The results will help you decide how hot, cold, wet, or windy it might be!

Date:

Astronomy

Nov. 21, 2013 Rise Set
Actual Time 7:06 AM CET 4:44 PM CET
Civil Twilight 6:36 AM CET 5:14 PM CET
Nautical Twilight 6:01 AM CET 5:49 PM CET
Astronomical Twilight 5:28 AM CET 6:22 PM CET
Moon 8:06 PM CET (11/21) 10:01 AM CET (11/21)
Length of Visible Light 10h 38m
Length of Day
9h 38m
Waning Gibbous, 87% of the Moon is Illuminated
Nov 21
Waning Gibbous
Nov 25
Last Quarter
Dec 3
New
Dec 9
First Quarter
Dec 17
Full

Hourly Weather History & Observations

Time (CET) Temp. Dew Point Humidity Pressure Visibility Wind Dir Wind Speed Gust Speed Precip Events Conditions
3:15 AM 50.0 °F 46.4 °F 87% 29.68 in 6.2 mi South 3.5 mph - N/A   Scattered Clouds
4:15 AM 50.0 °F 46.4 °F 87% 29.68 in 6.2 mi South 5.8 mph - N/A   Scattered Clouds
5:15 AM 50.0 °F 42.8 °F 76% 29.68 in 6.2 mi SSW 3.5 mph - N/A   Scattered Clouds
6:15 AM 50.0 °F 41.0 °F 71% 29.65 in 6.2 mi SSW 4.6 mph - N/A   Scattered Clouds
7:15 AM 48.2 °F 42.8 °F 82% 29.65 in 6.2 mi South 5.8 mph - N/A   Scattered Clouds
7:45 AM 50.0 °F 44.6 °F 82% 29.65 in 6.2 mi SSW 1.2 mph - N/A   Scattered Clouds
8:15 AM 50.0 °F 42.8 °F 76% 29.65 in 6.2 mi SSW 2.3 mph - N/A   Scattered Clouds
8:45 AM 51.8 °F 42.8 °F 71% 29.65 in 6.2 mi SSW 4.6 mph - N/A   Partly Cloudy
9:15 AM 53.6 °F 44.6 °F 72% 29.65 in 6.2 mi SSE 4.6 mph - N/A   Partly Cloudy
9:45 AM 53.6 °F 44.6 °F 72% 29.65 in 6.2 mi SSW 6.9 mph - N/A   Scattered Clouds
10:15 AM 55.4 °F 42.8 °F 63% 29.65 in 6.2 mi SW 8.1 mph - N/A   Scattered Clouds
10:45 AM 57.2 °F 44.6 °F 63% 29.65 in 6.2 mi SSW 9.2 mph - N/A   Scattered Clouds
11:15 AM 51.8 °F 46.4 °F 82% 29.65 in 6.2 mi WSW 6.9 mph - N/A Rain , Thunderstorm Light Thunderstorms and Rain
11:45 AM 51.8 °F 46.4 °F 82% 29.65 in 6.2 mi SW 6.9 mph - N/A   Scattered Clouds
12:15 PM 53.6 °F 46.4 °F 77% 29.62 in 6.2 mi SW 10.4 mph - N/A   Partly Cloudy
12:45 PM 53.6 °F 46.4 °F 77% 29.62 in 6.2 mi SSW 8.1 mph - N/A   Scattered Clouds
1:15 PM 53.6 °F 46.4 °F 77% 29.62 in 6.2 mi South 11.5 mph - N/A   Scattered Clouds
1:45 PM 51.8 °F 46.4 °F 82% 29.59 in 6.2 mi South 8.1 mph - N/A   Scattered Clouds
2:15 PM 55.4 °F 46.4 °F 72% 29.59 in 6.2 mi South 6.9 mph - N/A   Scattered Clouds
2:45 PM 53.6 °F 41.0 °F 62% 29.59 in 6.2 mi SSW 8.1 mph - N/A   Scattered Clouds
3:15 PM 50.0 °F 44.6 °F 82% 29.59 in 6.2 mi WSW 6.9 mph - N/A Rain Rain Showers
3:45 PM 51.8 °F 48.2 °F 88% 29.59 in 6.2 mi South 5.8 mph - N/A   Scattered Clouds
4:15 PM 51.8 °F 46.4 °F 82% 29.56 in 6.2 mi South 6.9 mph - N/A   Scattered Clouds
4:45 PM 50.0 °F 46.4 °F 87% 29.56 in 6.2 mi SSE 5.8 mph - N/A   Scattered Clouds
5:15 PM 51.8 °F 46.4 °F 82% 29.56 in 6.2 mi SSE 9.2 mph - N/A   Scattered Clouds
5:45 PM 51.8 °F 44.6 °F 76% 29.56 in 6.2 mi SSE 15.0 mph - N/A   Scattered Clouds
6:15 PM 51.8 °F 46.4 °F 82% 29.53 in 6.2 mi SSE 13.8 mph - N/A Rain Light Rain
6:45 PM 50.0 °F 46.4 °F 87% 29.53 in 6.2 mi SSE 16.1 mph - N/A Rain Light Rain
7:15 PM 50.0 °F 46.4 °F 87% 29.53 in 6.2 mi SSE 13.8 mph - N/A   Scattered Clouds
7:45 PM 51.8 °F 46.4 °F 82% 29.50 in 5.0 mi SSE 17.3 mph 35.7 mph N/A Rain , Thunderstorm Light Thunderstorms and Rain
8:15 PM 51.8 °F 50.0 °F 94% 29.50 in 5.0 mi SSE 12.7 mph - N/A Rain , Thunderstorm Light Thunderstorms and Rain
8:45 PM 48.2 °F 46.4 °F 93% 29.53 in 5.0 mi SSW 10.4 mph 26.5 mph N/A Rain , Thunderstorm Thunderstorms and Rain
9:15 PM 48.2 °F 46.4 °F 93% 29.53 in 5.0 mi SSW 8.1 mph - N/A Rain , Thunderstorm Thunderstorms and Rain
9:45 PM 48.2 °F 48.2 °F 100% 29.53 in 6.2 mi SSE 5.8 mph - N/A Rain Light Rain
10:15 PM 48.2 °F 48.2 °F 100% 29.50 in 6.2 mi SE 8.1 mph - N/A   Mostly Cloudy
10:45 PM 50.0 °F 50.0 °F 100% 29.50 in 6.2 mi SSE 8.1 mph - N/A Rain Light Rain
11:15 PM 50.0 °F 50.0 °F 100% 29.50 in 6.2 mi SSE 10.4 mph - N/A Rain Light Rain
11:45 PM 50.0 °F 50.0 °F 100% 29.50 in 6.2 mi SSE 6.9 mph - N/A   Mostly Cloudy